www.pogodaiklimat.ru

Погода и климат >> Архив погоды >> Россия >> Астраханская область >> Зеленга


ПОГОДА в Зеленге

  • Прогноз погоды в Зеленге
  • Монитор погоды в Зеленге

АРХИВ ПОГОДЫ в Зеленге

Время (UTC), дата Ветер
(напр.,м/с)
 
Видим.   Явления Облачность Т
(С)
Тd
(С)
f
(%)
Тe
(С)
Тes
(С)
Комфортность P
(гПа)
Po
(гПа)
Тmin
(С)
Tmax
(С)
R
(мм)
R24
(мм)
S
(см)
21 19.05 З 2 20 км дымка ясно +18.4 +16.7 90 +20 +20 1011.3 1014.0
00 20.05 С 3 20 км ясно +17.2 +14.2 83 +17 +17 1011.4 1014.1
03 20.05 С 2 20 км 6/0
[Ac lent]
+17.0 +12.5 75 +17 +18 1012.3 1015.1 +16.9
06 20.05 С 4 20 км 8/0
[Cs]
+20.1 +8.5 47 +21 +28 комфорт 1013.9 1016.6
09 20.05 С 5 20 км 6/0
[Cs]
+22.0 +7.9 40 +23 +31 комфорт 1015.6 1018.3
12 20.05 С 5 20 км 3/0
[Ci fib]
+22.1 +6.7 37 +23 +28 комфорт 1015.9 1018.6
15 20.05 С 4 20 км 4/0
[Ci fib]
+20.9 +3.0 31 +22 +22 комфорт 1016.5 1019.2 +23.3
18 20.05 С 2 20 км ясно +15.9 +6.0 52 +16 +16 1018.2 1021.0
21 20.05 С 2 20 км ясно +14.8 +7.3 61 +15 +15 1019.4 1022.2
00 21.05 С 2 20 км ясно +12.6 +7.9 73 +12 +12 1020.2 1023.0
03 21.05 СВ 2 20 км ясно +13.9 +9.0 72 +13 +15 1021.7 1024.5 +12.5
06 21.05 СВ 3 20 км ясно +16.4 +4.3 45 +16 +26 1022.5 1025.2
09 21.05 СВ 3 20 км ясно +18.6 +4.1 38 +19 +34 опасность
простуды
1022.6 1025.3
12 21.05 ЮЗ 3 20 км ясно +21.4 +5.3 35 +22 +31 комфорт 1022.0 1024.7
15 21.05 ЮЗ 2 20 км ясно +20.2 +5.7 39 +22 +23 комфорт 1021.4 1024.1 +22.8
18 21.05 Ю 2 20 км ясно +15.6 +9.9 69 +16 +16 1022.0 1024.8
21 21.05 З 1 4000 м дымка ясно +14.3 +12.3 88 +15 +15 1022.3 1025.1
00 22.05 штиль 0 4000 м дымка ясно +13.2 +12.3 94 +13 +13 1022.1 1024.9
03 22.05 В 2 20 км ясно +16.1 +11.7 75 +16 +18 1021.6 1024.4 +13.1
06 22.05 Ю 3 20 км ясно +19.4 +9.4 52 +21 +31 комфорт 1022.1 1024.8
09 22.05 Ю 5 20 км 6/6 600 м
[Cu med, cong]
+20.0 +8.6 48 +21 +25 комфорт 1020.8 1023.5
12 22.05 Ю 5 20 км 6/0
[Ac lent]
+20.2 +8.6 47 +21 +24 комфорт 1019.2 1021.9
15 22.05 ЮВ 4 20 км 6/0
[Ac lent]
+19.2 +8.5 50 +20 +20 1018.5 1021.2 +21.1
18 22.05 В 2 20 км ясно +16.0 +12.8 81 +16 +16 1018.4 1021.2
21 22.05 В 2 4000 м дымка 6/0
[Ac trans]
+15.3 +13.5 89 +15 +15 1017.0 1019.8
00 23.05 СВ 1 4000 м дымка 8/8 600 м
[Sc]
+15.2 +13.6 90 +16 +16 1015.2 1018.0
03 23.05 В 1 4000 м дымка 8/8 600 м
[Sc]
+16.1 +14.4 90 +17 +17 1013.8 1016.6 +15.1
06 23.05 ЮЗ 2 20 км 8/8 600 м
[Sc]
+20.7 +15.5 72 +24 +27 комфорт 1013.1 1015.8
09 23.05 З 3 20 км 6/6 600 м
[Sc]
+21.3 +13.1 59 +24 +30 комфорт 1012.8 1015.5
12 23.05 Ю 3 20 км 6/0
[Ac trans]
+21.6 +5.4 35 +22 +28 комфорт 1011.3 1013.9
15 23.05 Ю 2 20 км 6/0
[Ac trans]
+19.0 +9.4 54 +20 +21 1011.0 1013.7 +22.8
18 23.05 Ю 2 4000 м дымка ясно +16.3 +14.0 86 +16 +16 1010.5 1013.2
21 23.05 ЮЗ 2 4000 м дымка ясно +15.7 +14.1 90 +16 +16 1009.8 1012.5
00 24.05 З 3 4000 м дымка 8/8 600 м
[Sc]
+15.8 +14.0 89 +15 +15 1009.2 1011.9
03 24.05 З 3 20 км 8/8 600 м
[Sc]
+16.7 +13.7 82 +16 +17 1009.5 1012.2 +15.6
06 24.05 З 3 20 км 8/8 600 м
[Sc]
+18.5 +14.5 78 +19 +21 1009.1 1011.8
09 24.05 СЗ 2 20 км 9/9 600 м
[Cu med, cong]
+21.1 +15.8 72 +24 +26 комфорт 1008.8 1011.5
12 24.05 З 1 20 км 6/6 600 м
[Cu med, cong]
+24.4 +13.9 52 +27 +32 жарко 1008.5 1011.1
15 24.05 З 1 20 км 3/3 600 м
[Cu med, cong]
+25.6 +13.6 47 +28 +29 жарко 1008.4 1011.0 +26.8
18 24.05 Ю 1 20 км ясно +19.9 +16.2 79 +23 +23 комфорт 1009.7 1012.4
21 24.05 ЮЗ 2 4000 м дымка ясно +18.7 +17.4 92 +20 +20 1010.7 1013.4
00 25.05 ЮЗ 2 4000 м дымка ясно +17.2 +16.4 95 +18 +18 1010.8 1013.5
03 25.05 ЮЗ 1 4000 м дымка 6/0
[Ac lent]
+18.6 +17.8 95 +21 +22 комфорт 1011.6 1014.3 +17.1
06 25.05 ЮЗ 1 20 км 6/0
[Ac lent]
+22.6 +17.3 72 +27 +35 душно 1012.6 1015.3
09 25.05 Ю 3 20 км 8/0
[Ac trans]
+27.0 +15.4 49 +30 +38 душно 1012.7 1015.3
12 25.05 Ю 3 20 км 6/0
[Ac lent]
+25.7 +15.9 55 +29 +34 душно 1012.3 1014.9
15 25.05 Ю 4 20 км ясно +23.7 +14.0 55 +26 +27 жарко 1011.6 1014.2 +28.2
18 25.05 ЮВ 1 4000 м дымка ясно +18.6 +16.6 88 +21 +21 комфорт 1012.4 1015.1
21 25.05 В 2 4000 м дымка 6/6 600 м
[Sc]
+19.2 +17.4 89 +22 +22 комфорт 1011.8 1014.5
00 26.05 В 2 4000 м дымка 10/10 600 м
[Sc]
+19.0 +17.4 90 +21 +21 комфорт 1011.9 1014.6
03 26.05 В 1 19 км дымка {ливн. осадки} 8/8 600 м
[Sc]
+19.1 +17.5 90 +22 +22 комфорт 1011.8 1014.5 +18.5 1
06 26.05 В 2 20 км {ливн. осадки} 4/0
[Ci fib]
+24.4 +16.8 63 +28 +40 душно 1012.3 1014.9
09 26.05 В 3 20 км 6/6 600 м
[Cu med, cong]
+26.2 +17.1 57 +30 +36 душно 1012.7 1015.4
12 26.05 ЮВ 3 20 км 6/6 600 м
[Cu med, cong]
+24.8 +18.3 67 +29 +33 душно 1012.5 1015.2
15 26.05 Ю 2 20 км ясно +23.9 +18.4 71 +28 +30 душно 1012.2 1014.8 +27.4

 

Местоположение метеостанции Зеленга (Астраханская область, Россия): широта 46.18 долгота 48.62 высота над уровнем моря -22 м.

В архиве по умолчанию представлена погода в Зеленге за последнюю неделю. Архивные данные за месяц целиком и за предыдущие месяцы, начиная с января 2011 года, Вы можете получить, выбрав интересующий диапазон дат из раскрывающегося списка и нажав кнопку "Ввод!".


*Определитесь, кто Вы:
робот инопланетянин человек

Внимание! Время в таблицах - всемирное. Для получения местного времени необходимо прибавить поправку, которая равна 4 ч.

Смотрите также архив погоды в соседних городах и на ближайших метеорологических станциях:

Погода в Астрахани (Астраханская область, Россия) (50 км)
Погода в Ганюшкино (Атырауская область, Казахстан) (68 км)
Погода в Досанге (Астраханская область, Россия) (98 км)
Погода в Лимане (Астраханская область, Россия) (116 км)
Погода в Исатай (Атырауская область, Казахстан) (131 км)
Погода в Лагани (Калмыкия, Россия) (131 км)
Погода на Кулалы Острове (Мангистауская область, Казахстан) (170 км)
Погода в Харабали (Астраханская область, Россия) (171 км)
Погода в Жанауштогане (Атырауская область, Казахстан) (192 км)
Погода в Утте (Калмыкия, Россия) (201 км)

Пояснения к столбцам:

Ветер - указаны скорость ветра в м/с - средняя за 10 мин, порывы в срок и между сроками (в фигурных скобках) и направление, откуда дует ветер: С - северный, СВ - северо-восточный, В - восточный, ЮВ - юго-восточный, Ю - южный, ЮЗ - юго-западный, З - западный, СЗ - северо-западный.
Видимость - горизонтальная дальность видимости в метрах или километрах. При видимости от 1 до 10 км при отсутствии осадков обычно наблюдается дымка, при ухудшении видимости до 1 км и менее - туман. В сухую погоду видимость может ухудшаться дымом, пылью или мглою.
Явления - указаны атмосферные явления, наблюдавшиеся в срок или в последний час перед сроком; фигурными скобками обозначены явления, наблюдавшиеся между сроками (за 1-3 часа до срока); квадратными скобками обозначены град или гололедные отложения с указанием их диаметра в мм.
Облачность - указаны через наклонную черту общая и нижняя облачность в баллах и высота нижней границы облаков в метрах; квадратными скобками обозначены формы облаков: Ci - перистые, Cs - перисто-слоистые, Cc - перисто-кучевые, Ac - высококучевые, As - высокослоистые, Sc - слоисто-кучевые, Ns - слоисто-дождевые, Cu - кучевые, Cb - кучево-дождевые. Подробнее классификацию облаков см. в Атласе облаков (PDF).
T - Температура воздуха - температура, измеренная на высоте 2 м над землей.
Td - Температура точки росы - температура, при понижении до которой содержащийся в воздухе водяной пар достигнет насыщения.
f - Относительная влажность воздуха - влажноcть воздуха, измеренная на высоте 2 м над землей.
Te - Эффективная температура - температура, которую ощущает одетый по сезону человек в тени. Характеристика душности погоды. При расчете учитывается влияние влажности воздуха и скорости ветра на теплоощущения человека.
Tes - Эффективная температура на солнце - температура, которую ощущает человек, с поправкой на солнечный нагрев. Характеристика знойности погоды. Зависит от высоты солнца над горизонтом, облачности и скорости ветра. Ночью, в пасмурную погоду, а также при ветре 12 м/с и более поправка равна нулю.
P - Атмосферное давление - приведенное к уровню моря атмосферное давление.
Po - Атмосферное давление - измеренное на уровне метеостанции атмосферное давление.
Tmin - Минимальная температура - минимум температуры воздуха на высоте 2 м над землей.
Tmax - Максимальная температура - максимум температуры воздуха на высоте 2 м над землей.
R - Количество осадков - Количество выпавших осадков за период времени, мм. При наведении курсора мыши на число - период времени, за который выпало указанное количество осадков.
R24 - Количество осадков - Количество выпавших осадков за 24 часа, мм.
S - Снежный покров - Высота снежного покрова, см. При наведении курсора мыши на число - состояние снежного покрова и степень покрытия местности в баллах.